Cape Girardeau, MO

4:57 AM CDT on October 16, 2019 (GMT -0500)
Cape Girardeau Regional

Weather History for KCGI - September, 2019

Change the Weather History Date:

Saturday, September 21, 2019

  Actual Average Record
Temperature  
Mean Temperature 78 °F 67 °F  
Max Temperature 88 °F 79 °F 94 °F (2010)
Min Temperature 67 °F 54 °F 39 °F (1991)
Degree Days  
Heating Degree Days 0 2  
Month to date heating degree days 0 15  
Since 1 July heating degree days 0 16  
Cooling Degree Days 13 4  
Month to date cooling degree days 265 136  
Year to date cooling degree days 1640 1396  
Growing Degree Days 28 (Base 50)    
Moisture  
Dew Point 64 °F    
Average Humidity 71    
Maximum Humidity 97    
Minimum Humidity 45    
Precipitation  
Precipitation 0.00 in 0.11 in 1.59 in (1967)
Month to date precipitation 2.25 2.32  
Year to date precipitation 47.26 33.37  
Sea Level Pressure  
Sea Level Pressure 30.13 in    
Wind  
Wind Speed 8 mph (South)    
Max Wind Speed 17 mph    
Max Gust Speed 24 mph    
Visibility 10 miles    
Events      
T = Trace of Precipitation, MM = Missing Value Source: NWS Daily Summary

Daily Weather History Graph

Daily Weather History Graph

Search for Another Location

Airport or City:

Astronomy

Sep. 21, 2019 Rise Set
Actual Time 6:45 AM CDT 6:57 PM CDT
Civil Twilight 6:19 AM CDT 7:23 PM CDT
Nautical Twilight 5:48 AM CDT 7:53 PM CDT
Astronomical Twilight 5:17 AM CDT 8:24 PM CDT
Moon 11:43 PM CDT (9/21) 1:42 PM CDT (9/21)
Length of Visible Light 13h 03m
Length of Day
12h 11m
Waning Gibbous, 54% of the Moon is Illuminated
Sep 21
Waning Gibbous
Sep 21
Last Quarter
Sep 28
New
Oct 5
First Quarter
Oct 13
Full

Hourly Weather History & Observations

Time (CDT) Temp. Heat Index Dew Point Humidity Pressure Visibility Wind Dir Wind Speed Gust Speed Precip Events Conditions
12:53 AM 70.0 °F - 68.0 °F 93% 30.13 in 3.0 mi SE 5.8 mph - N/A   Clear
1:53 AM 70.0 °F - 68.0 °F 93% 30.14 in 7.0 mi SSE 3.5 mph - N/A   Clear
2:53 AM 70.0 °F - 66.0 °F 87% 30.14 in 10.0 mi SSE 5.8 mph - N/A   Clear
3:53 AM 71.1 °F - 66.0 °F 84% 30.14 in 10.0 mi South 6.9 mph - N/A   Clear
4:53 AM 70.0 °F - 64.9 °F 84% 30.15 in 10.0 mi Calm Calm - N/A   Clear
5:53 AM 70.0 °F - 64.9 °F 84% 30.17 in 10.0 mi South 5.8 mph - N/A   Mostly Cloudy
6:53 AM 70.0 °F - 64.9 °F 84% 30.17 in 10.0 mi SSE 8.1 mph - N/A   Scattered Clouds
7:53 AM 71.1 °F - 64.9 °F 81% 30.19 in 10.0 mi SSE 8.1 mph - N/A   Partly Cloudy
8:53 AM 75.9 °F - 64.9 °F 69% 30.19 in 10.0 mi South 8.1 mph 17.3 mph N/A   Clear
9:53 AM 78.1 °F - 64.0 °F 62% 30.20 in 10.0 mi SSW 10.4 mph 18.4 mph N/A   Clear
10:53 AM 78.1 °F - 63.0 °F 60% 30.19 in 10.0 mi South 10.4 mph - N/A   Clear
11:53 AM 84.0 °F 85.8 °F 64.9 °F 53% 30.17 in 10.0 mi SSW 11.5 mph 19.6 mph N/A   Partly Cloudy
12:53 PM 86.0 °F 86.8 °F 63.0 °F 46% 30.15 in 10.0 mi South 16.1 mph 24.2 mph N/A   Clear
1:53 PM 86.0 °F 87.3 °F 64.0 °F 48% 30.13 in 10.0 mi SW 10.4 mph 18.4 mph N/A   Clear
2:53 PM 86.0 °F 86.8 °F 63.0 °F 46% 30.11 in 10.0 mi SW 11.5 mph - N/A   Clear
3:53 PM 86.0 °F 88.2 °F 66.0 °F 51% 30.09 in 10.0 mi SW 6.9 mph - N/A   Clear
4:53 PM 86.0 °F 87.6 °F 64.9 °F 49% 30.08 in 10.0 mi SSW 9.2 mph - N/A   Clear
5:53 PM 84.0 °F 85.4 °F 64.0 °F 51% 30.07 in 9.0 mi South 8.1 mph - N/A   Clear
6:53 PM 80.1 °F 81.1 °F 61.0 °F 52% 30.07 in 10.0 mi SSE 5.8 mph - N/A   Clear
8:53 PM 75.0 °F - 60.1 °F 60% 30.09 in 10.0 mi South 5.8 mph - N/A   Clear
9:53 PM 75.0 °F - 60.1 °F 60% 30.09 in 10.0 mi South 6.9 mph - N/A   Clear
10:53 PM 73.0 °F - 60.1 °F 64% 30.08 in 10.0 mi SSE 5.8 mph - N/A   Clear
11:53 PM 73.0 °F - 61.0 °F 66% 30.08 in 10.0 mi South 6.9 mph - N/A   Clear